Latest Weather Observations for Hobart

IDT60801

Issued at 9:31 am EST Wednesday 22 April 2015 (issued every 30 minutes, with the page automatically refreshed every 10 minutes)

About weather observations | Map of weather stations | Latest weather observations for TAS | Other Formats
Station Details ID: 094029 Name: HOBART (ELLERSLIE ROAD) Lat: -42.89 Lon: 147.33 Height: 50.5 m
Data from the previous 72 hours. | See also: Recent months at Hobart
Date/Time
EST
Temp
°C
App
Temp
°C
Dew
Point
Rel
Hum
%
Delta-T
°C
Wind Press
QNH
hPa
Press
MSL
hPa
Rain
since 9 am
mm
Dir
 
Spd
km/h
Gust
km/h
Spd
kts
Gust
kts
22/09:30am 13.8 12.2 8.8 72 2.5 N 7 11 4 6 1030.0 1030.1 0.0
22/09:00am 12.3 10.6 8.4 77 1.9 N 7 9 4 5 1030.0 1030.1 0.0
22/08:30am 10.9 10.5 8.2 83 1.3 CALM 0 0 0 0 1030.1 1030.2 0.0
22/08:00am 9.8 8.2 7.9 88 0.9 NW 6 7 3 4 1030.3 1030.4 0.0
22/07:30am 8.8 7.1 7.5 91 0.6 NNW 6 7 3 4 1030.1 1030.2 0.0
22/07:00am 8.7 6.1 7.6 93 0.5 NNW 11 15 6 8 1029.9 1030.0 0.0
22/06:30am 8.2 5.8 7.1 93 0.5 NW 9 11 5 6 1029.8 1029.9 0.0
22/06:00am 8.7 7.0 7.6 93 0.5 WNW 6 7 3 4 1029.9 1030.0 0.0
22/05:30am 8.8 6.9 7.7 93 0.5 W 7 9 4 5 1029.9 1030.0 0.0
22/05:00am 9.0 7.3 7.7 91 0.6 W 6 9 3 5 1029.8 1029.9 0.0
22/04:30am 9.1 7.3 8.1 93 0.5 N 7 9 4 5 1029.8 1029.9 0.0
22/04:00am 9.2 7.0 7.9 92 0.6 NNW 9 13 5 7 1029.8 1029.9 0.0
22/03:30am 9.5 7.8 8.5 93 0.5 NW 7 11 4 6 1029.8 1029.9 0.0
22/03:00am 9.6 8.1 8.4 92 0.6 W 6 9 3 5 1030.0 1030.1 0.0
22/02:30am 10.0 9.3 8.6 91 0.7 NW 2 7 1 4 1030.2 1030.3 0.0
22/02:00am 10.1 8.5 8.9 92 0.6 W 7 9 4 5 1030.3 1030.4 0.0
22/01:30am 10.1 8.0 8.4 89 0.8 WNW 9 11 5 6 1030.7 1030.7 0.0
22/01:00am 10.9 8.6 9.1 89 0.9 WSW 11 13 6 7 1030.5 1030.6 0.0
22/12:30am 11.2 8.5 9.0 86 1.1 WSW 13 15 7 8 1030.7 1030.7 0.0
22/12:00am 11.2 8.9 9.0 86 1.1 WSW 11 13 6 7 1030.9 1030.9 0.0
 
Date/Time
EST
Temp
°C
App
Temp
°C
Dew
Point
Rel
Hum
%
Delta-T
°C
Wind Press
QNH
hPa
Press
MSL
hPa
Rain
since 9 am
mm
Dir
 
Spd
km/h
Gust
km/h
Spd
kts
Gust
kts
21/11:30pm 10.8 8.4 8.8 87 1.0 W 11 13 6 7 1031.2 1031.2 0.0
21/11:00pm 11.6 9.3 9.0 84 1.3 WSW 11 13 6 7 1031.5 1031.5 0.0
21/10:30pm 12.0 9.7 9.0 82 1.5 WSW 11 13 6 7 1031.9 1031.9 0.0
21/10:00pm 12.5 11.2 9.1 80 1.7 SW 6 9 3 5 1032.1 1032.1 0.0
21/09:30pm 13.1 11.2 9.1 77 2.0 WSW 9 9 5 5 1032.3 1032.3 0.0
21/09:00pm 13.6 11.7 9.0 74 2.3 WSW 9 13 5 7 1032.3 1032.3 0.0
21/08:30pm 13.6 12.0 8.8 73 2.4 WSW 7 11 4 6 1032.2 1032.2 0.0
21/08:00pm 13.7 11.8 8.9 73 2.4 SW 9 13 5 7 1032.2 1032.2 0.0
21/07:30pm 13.7 12.3 9.4 75 2.2 SW 7 11 4 6 1032.5 1032.5 0.0
21/07:00pm 13.8 12.4 9.5 75 2.2 SSW 7 9 4 5 1032.4 1032.4 0.0
21/06:30pm 14.2 12.4 9.3 72 2.5 SSW 9 13 5 7 1032.3 1032.3 0.0
21/06:00pm 14.4 12.6 9.5 72 2.5 SSE 9 13 5 7 1032.1 1032.1 0.0
21/05:30pm 14.8 11.3 8.9 68 3.0 SE 17 20 9 11 1031.9 1031.9 0.0
21/05:00pm 15.5 12.9 7.9 60 3.8 SE 11 15 6 8 1031.6 1031.6 0.0
21/04:30pm 15.7 12.3 7.6 58 4.0 SE 15 19 8 10 1031.5 1031.5 0.0
21/04:00pm 15.8 12.9 8.2 60 3.8 ESE 13 19 7 10 1031.5 1031.5 0.0
21/03:30pm 16.0 12.7 8.2 60 4.0 ESE 15 20 8 11 1031.4 1031.4 0.0
21/03:00pm 16.3 13.0 8.2 58 4.1 SE 15 19 8 10 1031.5 1031.5 0.0
21/02:30pm 16.2 12.5 7.8 57 4.2 SE 17 20 9 11 1031.5 1031.5 0.0
21/02:00pm 16.6 13.8 7.1 53 4.7 SE 11 15 6 8 1031.5 1031.5 0.0
21/01:30pm 17.0 14.2 7.1 52 4.9 E 11 13 6 7 1031.6 1031.6 0.0
21/01:00pm 17.2 14.4 6.9 50 5.1 NE 11 15 6 8 1031.9 1031.9 0.0
21/12:30pm 17.1 14.3 7.0 51 5.0 NNE 11 15 6 8 1032.3 1032.3 0.0
21/12:00pm 16.9 14.9 7.0 52 4.9 NW 7 13 4 7 1032.7 1032.7 0.0
21/11:30am 16.7 14.3 7.2 53 4.7 NNW 9 13 5 7 1033.1 1033.1 0.0
21/11:00am 16.4 13.2 6.8 53 4.7 NNW 13 19 7 10 1033.3 1033.3 0.0
21/10:30am 15.3 12.0 6.6 56 4.2 N 13 19 7 10 1033.5 1033.5 0.0
21/10:00am 14.8 12.9 6.5 57 4.0 NNE 6 9 3 5 1033.6 1033.6 0.0
21/09:30am 14.9 12.9 6.9 58 3.9 N 7 11 4 6 1033.8 1033.8 0.0
21/09:00am 12.5 11.7 6.6 67 2.8 CALM 0 0 0 0 1034.0 1034.0 0.0
21/08:30am 11.6 10.1 7.0 73 2.2 WNW 4 7 2 4 1034.1 1034.1 0.0
21/08:00am 10.7 8.5 6.4 75 2.0 WSW 7 9 4 5 1033.9 1033.9 0.0
21/07:30am 10.3 8.1 6.2 76 1.9 NW 7 11 4 6 1033.7 1033.7 0.0
21/07:00am 9.6 7.3 5.9 78 1.7 WNW 7 9 4 5 1033.5 1033.5 0.0
21/06:30am 9.7 7.5 6.2 79 1.6 WNW 7 7 4 4 1033.2 1033.2 0.0
21/06:00am 9.8 7.6 6.1 78 1.7 W 7 9 4 5 1033.2 1033.2 0.0
21/05:30am 9.9 8.6 6.0 77 1.8 WNW 2 9 1 5 1033.3 1033.3 0.0
21/05:00am 10.0 7.3 5.6 74 2.0 W 9 11 5 6 1033.2 1033.2 0.0
21/04:30am 9.8 7.5 5.6 75 1.9 W 7 9 4 5 1033.1 1033.1 0.0
21/04:00am 9.6 7.3 5.6 76 1.8 WSW 7 9 4 5 1033.1 1033.1 0.0
21/03:30am 9.5 7.2 5.5 76 1.8 WNW 7 9 4 5 1033.2 1033.2 0.0
21/03:00am 9.1 6.8 5.5 78 1.6 W 7 11 4 6 1033.1 1033.1 0.0
21/02:30am 9.1 6.7 5.3 77 1.7 W 7 9 4 5 1033.3 1033.3 0.0
21/02:00am 8.9 6.5 5.3 78 1.6 NW 7 11 4 6 1033.5 1033.5 0.0
21/01:30am 9.1 6.7 5.3 77 1.7 W 7 9 4 5 1033.6 1033.6 0.0
21/01:00am 9.1 6.7 5.1 76 1.8 WNW 7 13 4 7 1033.6 1033.6 0.0
21/12:30am 9.0 6.6 5.4 78 1.6 WNW 7 11 4 6 1033.8 1033.8 0.0
21/12:00am 9.7 6.1 5.2 73 2.0 NNW 13 20 7 11 1033.8 1033.8 0.0
 
Date/Time
EST
Temp
°C
App
Temp
°C
Dew
Point
Rel
Hum
%
Delta-T
°C
Wind Press
QNH
hPa
Press
MSL
hPa
Rain
since 9 am
mm
Dir
 
Spd
km/h
Gust
km/h
Spd
kts
Gust
kts
20/11:30pm 9.4 6.7 5.4 76 1.8 NW 9 13 5 7 1033.9 1033.9 0.0
20/11:00pm 9.6 7.7 5.1 73 2.0 N 4 9 2 5 1034.1 1034.1 0.0
20/10:30pm 10.0 6.8 5.1 71 2.2 NNW 11 15 6 8 1034.1 1034.1 0.0
20/10:00pm 9.7 7.2 5.0 72 2.1 W 7 13 4 7 1034.4 1034.4 0.0
20/09:30pm 10.3 8.0 4.9 69 2.4 WNW 6 7 3 4 1034.4 1034.4 0.0
20/09:00pm 10.7 8.2 4.7 66 2.7 WNW 7 11 4 6 1034.4 1034.4 0.0
20/08:30pm 10.4 8.0 5.1 69 2.4 W 7 11 4 6 1034.3 1034.3 0.0
20/08:00pm 10.8 8.5 5.0 67 2.6 W 6 9 3 5 1034.3 1034.3 0.0
20/07:30pm 11.2 9.6 4.7 64 2.9 W 2 7 1 4 1034.2 1034.2 0.0
20/07:00pm 11.4 9.2 5.3 66 2.8 WSW 6 7 3 4 1034.1 1034.1 0.0
20/06:30pm 12.0 9.5 4.7 61 3.3 WSW 7 11 4 6 1033.9 1033.9 0.0
20/06:00pm 12.6 9.7 4.9 59 3.5 W 9 13 5 7 1033.7 1033.7 0.0
20/05:30pm 13.8 11.2 4.1 52 4.4 ESE 7 9 4 5 1033.5 1033.5 0.0
20/05:00pm 13.9 10.8 3.7 50 4.6 SE 9 13 5 7 1033.5 1033.5 0.0
20/04:30pm 14.4 11.1 2.6 45 5.3 E 9 11 5 6 1033.4 1033.4 0.0
20/04:00pm 14.6 11.8 3.2 46 5.1 NNE 7 11 4 6 1033.4 1033.4 0.0
20/03:30pm 15.5 12.1 2.1 40 6.0 NNW 9 15 5 8 1033.5 1033.5 0.0
20/03:00pm 14.7 10.7 3.1 45 5.2 NNE 13 19 7 10 1033.6 1033.6 0.0
20/02:30pm 14.9 10.1 2.4 43 5.6 N 17 22 9 12 1033.8 1033.8 0.0
20/02:00pm 15.1 10.6 2.4 42 5.6 N 15 22 8 12 1033.8 1033.8 0.0
20/01:30pm 15.2 11.5 2.6 42 5.6 N 11 19 6 10 1034.1 1034.1 0.0
20/01:00pm 15.7 12.4 2.7 41 5.8 N 9 17 5 9 1034.3 1034.3 0.0
20/12:30pm 15.3 12.4 2.7 42 5.7 NW 7 17 4 9 1034.9 1034.9 0.0
20/12:00pm 13.5 9.4 2.5 47 4.8 NNE 13 20 7 11 1035.2 1035.2 0.0
20/11:30am 14.1 10.1 2.8 46 5.0 N 13 20 7 11 1035.7 1035.7 0.0
20/11:00am 12.7 7.9 2.5 50 4.4 NNW 17 24 9 13 1035.9 1035.9 0.0
20/10:30am 11.9 7.4 2.3 52 4.2 NNW 15 22 8 12 1036.1 1036.1 0.0
20/10:00am 10.9 5.7 2.4 55 3.6 NNW 19 24 10 13 1036.0 1036.0 0.0
20/09:30am 9.5 4.6 2.0 59 3.1 NNW 17 26 9 14 1036.4 1036.4 0.0
20/09:00am 8.4 3.5 2.1 64 2.6 NNW 17 24 9 13 1036.5 1036.5 0.0
20/08:30am 7.1 3.7 1.9 69 2.1 NW 9 22 5 12 1036.3 1036.3 0.0
20/08:00am 6.1 2.3 1.8 74 1.7 N 11 19 6 10 1036.1 1036.1 0.0
20/07:30am 4.3 1.2 1.5 82 1.1 NW 7 9 4 5 1035.9 1035.9 0.0
20/07:00am 3.7 0.6 1.1 83 1.0 W 7 9 4 5 1035.6 1035.6 0.0
20/06:30am 3.7 0.2 1.1 83 1.0 NW 9 13 5 7 1035.4 1035.4 0.0
20/06:00am 3.7 0.7 1.1 83 1.0 NW 6 11 3 6 1035.3 1035.3 0.0
20/05:30am 3.9 0.4 1.3 83 1.0 WNW 9 13 5 7 1035.0 1035.0 0.0
20/05:00am 3.7 0.6 1.1 83 1.0 W 7 11 4 6 1034.9 1034.9 0.0
20/04:30am 3.9 0.7 1.0 81 1.1 W 7 11 4 6 1034.7 1034.7 0.0
20/04:00am 4.0 1.0 0.8 80 1.2 WNW 6 9 3 5 1034.6 1034.6 0.0
20/03:30am 4.2 1.2 0.8 78 1.3 W 6 9 3 5 1034.6 1034.6 0.0
20/03:00am 4.3 1.1 0.9 78 1.3 WSW 7 13 4 7 1034.6 1034.6 0.0
20/02:30am 4.7 2.1 0.8 76 1.5 W 4 9 2 5 1034.7 1034.7 0.0
20/02:00am 4.6 0.3 0.7 76 1.5 WSW 13 17 7 9 1034.8 1034.8 0.0
20/01:30am 4.9 1.7 0.7 74 1.6 WSW 7 11 4 6 1034.6 1034.6 0.0
20/01:00am 5.0 2.0 0.6 73 1.7 SW 6 17 3 9 1034.5 1034.5 0.0
20/12:30am 5.1 2.1 0.7 73 1.7 W 6 9 3 5 1034.4 1034.4 0.0
20/12:00am 5.3 1.7 0.6 72 1.8 WSW 9 13 5 7 1034.3 1034.3 0.0
 
Date/Time
EST
Temp
°C
App
Temp
°C
Dew
Point
Rel
Hum
%
Delta-T
°C
Wind Press
QNH
hPa
Press
MSL
hPa
Rain
since 9 am
mm
Dir
 
Spd
km/h
Gust
km/h
Spd
kts
Gust
kts
19/11:30pm 5.6 3.0 0.7 71 1.9 N 4 9 2 5 1034.1 1034.1 0.0
19/11:00pm 6.0 3.7 0.6 68 2.1 W 2 9 1 5 1034.1 1034.1 0.0
19/10:30pm 6.4 2.8 0.5 66 2.3 NW 9 13 5 7 1034.0 1034.0 0.0
19/10:00pm 6.6 3.4 0.7 66 2.3 SW 7 17 4 9 1033.7 1033.7 0.0
19/09:30pm 7.8 4.2 0.4 59 2.9 NNW 9 17 5 9 1033.7 1033.7 0.0
19/09:00pm 8.0 4.3 0.1 57 3.1 WSW 9 20 5 11 1033.6 1033.6 0.0
19/08:30pm 7.2 3.6 0.3 61 2.7 W 9 17 5 9 1033.0 1033.0 0.0
19/08:00pm 8.1 5.0 0.2 57 3.1 NW 6 13 3 7 1032.3 1032.3 0.0
19/07:30pm 8.2 6.3 0.3 57 3.1 CALM 0 0 0 0 1032.0 1032.0 0.0
19/07:00pm 8.0 4.0 0.7 60 2.9 SW 11 15 6 8 1031.6 1031.6 0.0
19/06:30pm 8.9 6.5 0.0 53 3.5 W 2 9 1 5 1031.0 1031.0 0.0
19/06:00pm 9.7 5.2 -0.5 49 4.0 SSW 13 20 7 11 1030.3 1030.4 0.0
19/05:30pm 10.0 5.0 -1.0 46 4.3 SSW 15 28 8 15 1029.8 1029.9 0.0
19/05:00pm 10.7 4.8 -2.1 41 4.9 WSW 19 32 10 17 1029.4 1029.5 0.0
19/04:30pm 11.2 5.3 -2.0 39 5.1 SW 19 32 10 17 1028.8 1028.9 0.0
19/04:00pm 12.0 6.1 -2.2 37 5.5 WSW 19 30 10 16 1028.5 1028.6 0.0
19/03:30pm 12.1 6.5 -3.2 34 5.9 SW 17 32 9 17 1028.1 1028.2 0.0
19/03:00pm 12.3 6.0 -4.0 32 6.1 SW 20 28 11 15 1027.8 1027.9 0.0
19/02:30pm 13.2 7.7 -5.4 27 6.9 WSW 15 33 8 18 1027.4 1027.5 0.0
19/02:00pm 12.8 6.8 -6.2 26 6.8 S 17 24 9 13 1027.2 1027.2 0.0
19/01:30pm 13.1 6.0 -4.2 30 6.5 SW 24 39 13 21 1026.9 1026.9 0.0
19/01:00pm 12.6 6.4 -3.5 32 6.1 SSW 20 39 11 21 1026.6 1026.6 0.0
19/12:30pm 11.9 5.3 -3.1 35 5.7 SSW 22 43 12 23 1026.3 1026.3 0.0
19/12:00pm 11.4 5.6 -1.7 40 5.1 S 19 39 10 21 1026.5 1026.5 0.0
19/11:30am 10.8 4.5 -1.2 43 4.7 SSW 22 35 12 19 1026.3 1026.3 0.0
19/11:00am 11.2 5.2 -1.2 42 4.9 SW 20 32 11 17 1025.7 1025.7 0.0
19/10:30am 10.4 2.6 -0.7 46 4.4 SW 30 43 16 23 1025.2 1025.2 0.0
19/10:00am 10.5 2.1 -0.9 45 4.5 SW 33 54 18 29 1024.5 1024.5 0.0
19/09:47am 10.3 2.1 -1.2 44 4.5 SW 32 50 17 27 1024.3 1024.3 0.0

Other Formats:

Comma delimited format used in spreadsheet applications
http://www.bom.gov.au/fwo/IDT60801/IDT60801.94970.axf

JavaScript Object Notation format (JSON) in row-major order
http://www.bom.gov.au/fwo/IDT60801/IDT60801.94970.json